sat.trackr.live / text

‹ back to catalog

STARLINK-11699 [DTC]

NORAD 63762 · 2025-089M

PAYLOAD ACTIVE UNKNOWN

§ Identity

Operator
Country
US
Launch date
2025-04-29
Launch site
AFETR
Launch vehicle
Mass (kg)
RCS (m²)

Purposes: comms

External: N2YO · Heavens-Above · Gunter

§ Orbital elements

Epoch: 2026-09-20T18:41:30.713280Z

Period
91.67 min
Inclination
42.9997°
Eccentricity
0.0002266
Mean motion
15.70894011 rev/d
Perigee alt
354.8 km
Apogee alt
357.9 km
Semi-major
6,734.5 km
B*
3.1336e-4
RAAN
196.6942°
Arg perigee
243.8363°
Mean anomaly
116.2272°
Rev number
8,081

§ Raw data

STARLINK-11699 [DTC]1 63762U 25089M   26263.77882770  .00040047  00000+0  31336-3 0  99962 63762  42.9997 196.6942 0002266 243.8363 116.2272 15.70894011 80812

JSON: /api/v1/satellites/63762 · /tle

For live sub-satellite position, see the globe view (requires WebGL).

§ Visibility from observer

Set your observer location to see the next 7 days of passes ≥ 10°. The values pass through the URL so the page stays shareable.

No JS? Fill the form by hand. The geolocation button needs JavaScript.